GW1368 Weather Reports


time (UTC)temp
C
wind
direction
speed
KPH
gust
KPH
rain 1hr
cm
rain 24hr
cm
rain mn
cm
humidity
%
barometer
mb
20260505084050 10 14 3.2 8.0 0.20 1.14 0.76 74 1007.6
20260505083551 10 0 3.2 8.0 0.23 1.14 0.76 74 1007.5
20260505083040 9 16 4.8 8.0 0.33 1.14 0.76 77 1006.9
20260505082537 9 41 3.2 6.4 0.36 1.14 0.76 79 1007.0
20260505081538 9 59 1.6 6.4 0.48 1.14 0.76 82 1007.5
20260505081037 10 353 3.2 8.0 0.66 1.14 0.76 81 1008.3
20260505080537 9 319 3.2 8.0 0.71 1.12 0.76 80 1007.7
20260505080038 9 87 1.6 8.0 0.74 1.12 0.74 83 1007.8
20260505075537 10 0 1.6 4.8 0.74 1.09 0.74 82 1008.8
20260505075023 10 349 1.6 4.8 0.69 1.07 0.69 83 1008.0
20260505074509 10 75 1.6 4.8 0.61 0.99 0.61 80 1007.8
20260505074008 10 50 1.6 3.2 0.56 0.94 0.56 80 1008.6
20260505072954 10 0 1.6 4.8 0.46 0.81 0.46 80 1009.4
20260505071455 12 0 0.0 4.8 0.30 0.66 0.30 70 1009.2
20260505070955 13 335 0.0 4.8 0.10 0.48 0.10 58 1009.0
20260505070454 14 0 1.6 6.4 0.05 0.41 0.05 52 1009.0
20260505065954 14 35 3.2 6.4 0.00 0.38 0.00 45 1008.3
20260505065453 15 118 3.2 4.8 0.00 0.38 0.00 46 1007.9
20260505064954 15 339 3.2 9.7 0.00 0.38 0.00 44 1007.5
20260505064441 15 354 3.2 9.7 0.00 0.38 0.00 44 1006.9
20260505063939 15 349 3.2 9.7 0.00 0.38 0.00 44 1006.8
20260505063423 15 1 3.2 8.0 0.00 0.38 0.00 45 1006.7
20260505061923 15 30 6.4 14.5 0.00 0.38 0.00 44 1006.8
20260505061424 15 19 8.0 14.5 0.00 0.38 0.00 44 1006.6
20260505060924 16 23 8.0 14.5 0.00 0.38 0.00 43 1006.5
20260505060424 16 34 8.0 16.1 0.00 0.38 0.00 43 1006.3
20260505055924 16 26 8.0 19.3 0.00 0.38 0.00 43 1006.1
20260505055422 16 8 8.0 19.3 0.00 0.38 0.00 42 1005.8
20260505054922 17 38 8.0 16.1 0.00 0.38 0.00 42 1005.7
20260505054422 17 302 6.4 16.1 0.00 0.38 0.00 42 1005.6
20260505053420 18 322 4.8 14.5 0.00 0.38 0.00 42 1005.9
20260505052918 18 29 4.8 12.9 0.00 0.38 0.00 43 1005.8
20260505052419 18 6 4.8 12.9 0.08 0.38 0.00 44 1005.5
20260505050919 18 16 3.2 14.5 0.38 0.38 0.00 46 1004.8
20260505050419 18 22 3.2 14.5 0.38 0.38 0.00 47 1005.1
20260505041414 21 359 1.6 6.4 0.00 0.00 0.00 47 1004.5
20260505040915 21 54 1.6 4.8 0.00 0.00 0.00 46 1004.5
20260505040414 21 0 1.6 8.0 0.00 0.00 0.00 47 1004.4
20260505035913 21 247 1.6 8.0 0.00 0.00 0.00 49 1004.4
20260505035414 21 0 3.2 11.3 0.00 0.00 0.00 52 1004.3
20260505034914 21 0 3.2 11.3 0.00 0.00 0.00 53 1004.1
20260505034414 20 29 1.6 4.8 0.00 0.00 0.00 59 1004.0
20260505033914 20 0 0.0 3.2 0.00 0.00 0.00 62 1004.0
20260505033415 21 358 0.0 4.8 0.00 0.00 0.00 62 1003.8
20260505032915 21 0 0.0 4.8 0.00 0.00 0.00 62 1003.8
20260505032414 21 0 1.6 4.8 0.00 0.00 0.00 62 1003.7
20260505031409 21 207 1.6 6.4 0.00 0.00 0.00 60 1003.0
20260505030908 21 0 1.6 6.4 0.00 0.00 0.00 60 1002.9
20260505030408 22 208 1.6 4.8 0.00 0.00 0.00 58 1003.0
20260505025908 22 0 0.0 4.8 0.00 0.00 0.00 58 1002.9
20260505025408 22 206 0.0 4.8 0.00 0.00 0.00 57 1002.9
20260505024410 22 202 1.6 8.0 0.00 0.00 0.00 56 1002.8
20260505023409 22 198 0.0 6.4 0.00 0.00 0.00 56 1002.7
20260505022909 22 0 0.0 6.4 0.00 0.00 0.00 56 1002.7
20260505021909 22 0 0.0 4.8 0.00 0.00 0.00 55 1002.6
20260505020410 22 0 0.0 4.8 0.00 0.00 0.00 55 1002.3
20260505014407 22 0 0.0 4.8 0.00 0.00 0.00 53 1002.1
20260505013907 22 0 0.0 4.8 0.00 0.00 0.00 53 1002.0
20260505013407 22 214 0.0 3.2 0.00 0.00 0.00 52 1002.0
20260505012409 22 0 0.0 4.8 0.00 0.00 0.00 52 1001.8
20260505011908 23 0 0.0 4.8 0.00 0.00 0.00 52 1001.8
20260505011409 23 203 0.0 4.8 0.00 0.00 0.00 52 1001.7
20260505010909 23 211 0.0 4.8 0.00 0.00 0.00 52 1001.7
20260505005909 23 0 0.0 4.8 0.00 0.00 0.00 51 1001.6
20260505005407 23 0 0.0 3.2 0.00 0.00 0.00 51 1001.6
20260505004908 24 0 0.0 4.8 0.00 0.00 0.00 52 1001.4
20260505003905 24 204 1.6 6.4 0.00 0.00 0.00 51 1001.4
20260505003405 24 0 1.6 6.4 0.00 0.00 0.00 50 1001.3
20260505002905 25 221 1.6 6.4 0.00 0.00 0.00 51 1001.3
20260505002405 25 0 0.0 6.4 0.00 0.00 0.00 50 1001.3
20260505001407 25 174 1.6 6.4 0.00 0.00 0.00 50 1001.3
20260505000905 25 0 1.6 6.4 0.00 0.00 0.00 48 1001.3
20260505000406 25 179 1.6 6.4 0.00 0.00 0.00 49 1001.3
20260504235905 25 0 1.6 4.8 0.00 0.00 0.00 48 1001.3
20260504235406 25 199 0.0 4.8 0.00 0.00 0.00 49 1001.4
20260504234407 26 208 0.0 4.8 0.00 0.00 0.00 47 1001.3
20260504233902 26 221 0.0 4.8 0.00 0.00 0.00 47 1001.3
20260504233400 26 201 1.6 4.8 0.00 0.00 0.00 46 1001.3
20260504232900 26 199 1.6 6.4 0.00 0.00 0.00 46 1001.3
20260504231900 26 191 1.6 9.7 0.00 0.00 0.00 44 1001.3
20260504230401 26 228 1.6 8.0 0.00 0.00 0.00 46 1001.4
20260504225359 26 250 3.2 11.3 0.00 0.00 0.00 47 1001.4
20260504224858 27 0 1.6 6.4 0.00 0.00 0.00 45 1001.3
20260504223858 27 258 3.2 8.0 0.00 0.00 0.00 45 1001.3
20260504223358 27 0 3.2 14.5 0.00 0.00 0.00 44 1001.3
20260504222855 27 289 4.8 14.5 0.00 0.00 0.00 43 1001.3
20260504222356 27 219 4.8 14.5 0.00 0.00 0.00 42 1001.3
20260504221855 27 231 3.2 11.3 0.00 0.00 0.00 40 1001.4
20260504220855 27 0 3.2 12.9 0.00 0.00 0.00 40 1001.4
20260504220354 27 303 4.8 11.3 0.00 0.00 0.00 41 1001.4
20260504215855 27 216 3.2 11.3 0.00 0.00 0.00 40 1001.6
20260504215355 28 263 1.6 11.3 0.00 0.00 0.00 40 1001.7
20260504214856 28 164 1.6 8.0 0.00 0.00 0.00 41 1001.7
20260504214355 28 0 1.6 8.0 0.00 0.00 0.00 40 1001.8
20260504213855 28 225 1.6 8.0 0.00 0.00 0.00 41 1001.8
20260504213356 28 0 1.6 8.0 0.00 0.00 0.00 40 1001.8
20260504212852 28 220 1.6 8.0 0.00 0.00 0.00 39 1001.8
20260504212353 29 0 1.6 8.0 0.00 0.00 0.00 40 1001.7
20260504211852 29 139 1.6 9.7 0.00 0.00 0.00 36 1001.7
20260504210346 30 275 1.6 8.0 0.00 0.00 0.00 35 1001.7
20260504205847 30 327 1.6 6.4 0.00 0.00 0.00 35 1001.8
20260504205348 30 162 1.6 6.4 0.00 0.00 0.00 35 1001.9
20260504204847 30 0 1.6 9.7 0.00 0.00 0.00 35 1001.9
20260504204348 30 223 3.2 11.3 0.00 0.00 0.00 37 1002.0
20260504203848 30 115 3.2 11.3 0.00 0.00 0.00 38 1002.1
20260504202347 30 28 1.6 12.9 0.00 0.00 0.00 38 1002.2
20260504201844 29 171 1.6 12.9 0.00 0.00 0.00 37 1002.3
20260504201342 29 85 3.2 9.7 0.00 0.00 0.00 38 1002.2
20260504200841 28 300 3.2 9.7 0.00 0.00 0.00 40 1002.2
20260504200342 28 196 3.2 9.7 0.00 0.00 0.00 42 1002.3
20260504195843 29 204 3.2 11.3 0.00 0.00 0.00 42 1002.4
20260504195339 29 215 3.2 11.3 0.00 0.00 0.00 38 1002.4
20260504194839 29 218 3.2 11.3 0.00 0.00 0.00 39 1002.3
20260504194340 29 215 1.6 9.7 0.00 0.00 0.00 39 1002.4
20260504193839 29 254 3.2 11.3 0.00 0.00 0.00 37 1002.4
20260504193340 29 0 3.2 11.3 0.00 0.00 0.00 41 1002.3
20260504192839 29 192 1.6 9.7 0.00 0.00 0.00 41 1002.2
20260504192341 28 309 3.2 11.3 0.00 0.00 0.00 42 1002.3
20260504191837 28 339 3.2 11.3 0.00 0.00 0.00 43 1002.3
20260504191335 28 322 3.2 9.7 0.00 0.00 0.00 40 1002.4
20260504190330 28 234 4.8 12.9 0.00 0.00 0.00 44 1002.4
20260504185828 28 346 3.2 11.3 0.00 0.00 0.00 45 1002.5
20260504185328 28 160 3.2 9.7 0.00 0.00 0.00 45 1002.5
20260504184829 28 42 1.6 9.7 0.00 0.00 0.00 43 1002.5
20260504184328 27 0 3.2 9.7 0.00 0.00 0.00 44 1002.5
20260504183825 27 292 3.2 12.9 0.00 0.00 0.00 43 1002.5
20260504183325 27 219 3.2 12.9 0.00 0.00 0.00 45 1002.6
20260504182825 27 0 3.2 11.3 0.00 0.00 0.00 45 1002.5
20260504182325 27 272 4.8 11.3 0.00 0.00 0.00 42 1002.7
20260504181826 27 205 3.2 11.3 0.00 0.00 0.00 44 1002.7
20260504181325 27 218 3.2 11.3 0.00 0.00 0.00 45 1002.6
20260504180826 27 215 3.2 9.7 0.00 0.00 0.00 45 1002.6
20260504180326 27 243 3.2 9.7 0.00 0.00 0.00 45 1002.8
20260504175825 27 202 3.2 9.7 0.00 0.00 0.00 46 1002.8
20260504175326 27 200 3.2 9.7 0.00 0.00 0.00 47 1002.8
20260504174825 26 0 3.2 9.7 0.00 0.00 0.00 44 1002.9
20260504174322 26 161 3.2 9.7 0.00 0.00 0.00 47 1002.9
20260504173324 26 0 3.2 11.3 0.00 0.00 0.00 46 1003.0
20260504172821 26 182 3.2 11.3 0.00 0.00 0.00 45 1003.0
20260504172321 26 183 3.2 11.3 0.00 0.00 0.00 45 1003.1
20260504171819 25 275 3.2 9.7 0.00 0.00 0.00 47 1003.1
20260504170820 25 254 3.2 11.3 0.00 0.00 0.00 48 1003.2
20260504170321 25 180 1.6 9.7 0.00 0.00 0.00 46 1003.2
20260504160312 23 139 4.8 12.9 0.00 0.00 0.00 50 1003.4
20260504150807 22 204 3.2 12.9 0.00 0.00 0.00 51 1003.4
20260504150308 21 213 3.2 12.9 0.00 0.00 0.00 52 1003.4
20260504141256 20 276 4.8 12.9 0.00 0.00 0.00 56 1003.5
20260504140752 19 255 3.2 6.4 0.00 0.00 0.00 57 1003.6
20260504140238 19 228 3.2 6.4 0.00 0.00 0.00 58 1003.6
20260504130707 17 221 3.2 9.7 0.00 0.00 0.00 59 1003.4
20260504120108 16 230 3.2 6.4 0.00 0.00 0.00 61 1003.5
20260504110555 14 0 0.0 4.8 0.00 0.00 0.00 66 1003.5
20260504100525 13 0 0.0 0.0 0.00 0.00 0.00 74 1004.4